Location: Redwood City
(37.4850°N, 122.2350°W)
Time: 20:57:18
(UTC-07:00)

ISS - Visible Passes

Search period start: 30 September 2014 00:00
Search period end: 10 October 2014 00:00
Orbit: 413 x 416 km, 51.6° (Epoch: 30 September)

Date Brightness Start Highest point End Pass type
(mag) Time Alt. Az. Time Alt. Az. Time Alt. Az.
30 Sep -1.2 04:57:35 26° NE 04:57:35 26° NE 05:00:07 10° E visible
30 Sep -2.4 06:30:57 10° WNW 06:33:56 31° SW 06:36:54 10° SSE visible
01 Oct -3.3 05:44:12 45° W 05:44:56 61° SW 05:48:12 10° SE visible
02 Oct -0.8 04:58:03 19° ESE 04:58:03 19° ESE 04:59:09 10° ESE visible
02 Oct -1.0 06:31:33 10° WSW 06:32:06 10° SW 06:32:38 10° SW visible
03 Oct -1.0 05:44:58 13° S 05:44:58 13° S 05:45:36 10° S visible
04 Oct -1.5 19:55:50 10° S 19:57:28 17° SSE 19:57:28 17° SSE visible
05 Oct -1.6 20:42:09 10° SW 20:44:02 31° WSW 20:44:02 31° WSW visible
06 Oct -3.2 19:53:00 10° SW 19:56:16 57° SE 19:57:29 33° ENE visible
07 Oct -2.2 19:04:11 10° SSW 19:07:07 29° SE 19:10:03 10° ENE visible
07 Oct -1.4 20:40:52 10° W 20:43:37 27° NW 20:43:37 27° NW visible
08 Oct -2.3 19:51:12 10° WSW 19:54:24 46° NW 19:56:42 17° NNE visible
09 Oct -3.2 19:01:46 10° SW 19:05:05 86° NW 19:08:25 10° NE visible
09 Oct -0.6 20:40:14 10° WNW 20:42:12 15° NNW 20:42:29 15° NNW visible
